DW3371 Weather Reports


Display with metric or nautical units.
time (UTC)temp
F
wind
direction
speed
MPH
gust
MPH
rain 1hr
in
rain 24hr
in
rain mn
in
humidity
%
barometer
mb
20260508233337 50 126 1.0 4.0 0.00 0.00 0.00 74 1017.4
20260508230344 51 129 1.0 4.0 0.00 0.00 0.00 73 1017.5
20260508223337 52 142 1.0 3.0 0.00 0.00 0.00 72 1017.5
20260508213345 54 144 2.0 7.0 0.00 0.00 0.00 70 1017.3
20260508210336 55 134 3.0 7.0 0.00 0.00 0.00 68 1017.2
20260508203337 57 128 2.0 5.0 0.00 0.00 0.00 65 1017.1
20260508200347 58 169 3.0 8.0 0.00 0.00 0.00 62 1016.7
20260508193338 60 178 3.0 9.0 0.00 0.00 0.00 59 1016.0
20260508183342 65 190 4.0 10.0 0.00 0.00 0.00 52 1015.3
20260508180332 66 156 4.0 10.0 0.00 0.00 0.00 49 1015.3
20260508173332 68 0 5.0 12.0 0.00 0.00 0.00 44 1015.2
20260508170333 68 191 6.0 13.0 0.00 0.00 0.00 43 1015.0
20260508163333 68 224 5.0 11.0 0.00 0.00 0.00 38 1014.7
20260508160332 71 182 4.0 11.0 0.00 0.00 0.00 35 1014.6
20260508153335 70 155 3.0 10.0 0.00 0.00 0.00 35 1014.6
20260508150340 71 126 5.0 11.0 0.00 0.00 0.00 34 1014.7
20260508143332 68 209 3.0 11.0 0.00 0.00 0.00 37 1014.8
20260508133332 70 107 4.0 12.0 0.00 0.00 0.00 38 1015.0
20260508130332 67 131 4.0 13.0 0.00 0.00 0.00 40 1015.1
20260508123332 66 134 3.0 11.0 0.00 0.00 0.00 41 1015.1
20260508120332 65 70 3.0 12.0 0.00 0.00 0.00 43 1015.2
20260508113339 64 219 3.0 12.0 0.00 0.00 0.00 44 1015.5
20260508110332 64 154 5.0 12.0 0.00 0.00 0.00 43 1015.4
20260508103330 63 132 6.0 12.0 0.00 0.00 0.00 46 1015.5
20260508100331 62 55 5.0 13.0 0.00 0.00 0.00 48 1015.7
20260508093336 61 89 4.0 11.0 0.00 0.00 0.00 51 1015.8
20260508090330 61 84 6.0 11.0 0.00 0.00 0.00 53 1015.6
20260508083330 59 80 5.0 10.0 0.00 0.00 0.00 61 1015.7
20260508080330 58 98 5.0 10.0 0.00 0.00 0.00 68 1015.8
20260508073329 56 134 4.0 8.0 0.00 0.00 0.00 76 1015.7
20260508060336 47 96 0.0 2.0 0.00 0.00 0.00 87 1015.4
20260508053339 45 317 0.0 7.0 0.00 0.00 0.00 87 1015.5
20260508050335 45 186 0.0 0.0 0.00 0.00 0.00 87 1015.5
20260508043331 45 138 0.0 1.0 0.00 0.00 0.00 87 1015.0
20260508033335 44 139 0.0 0.0 0.00 0.00 0.00 87 1015.1
20260508030326 44 134 0.0 0.0 0.00 0.00 0.00 87 1015.1
20260508023325 44 0 1.0 4.0 0.00 0.00 0.00 87 1015.2
20260508020325 44 130 2.0 4.0 0.00 0.00 0.00 87 1015.0
20260508013329 44 130 2.0 6.0 0.00 0.00 0.00 86 1014.8
20260508010321 45 132 2.0 4.0 0.00 0.00 0.00 85 1014.9
20260508003319 46 141 2.0 4.0 0.00 0.00 0.00 85 1015.1